Regional Weather Roundup
Issued by NWS Grand Forks, ND

Home | Current Version | Previous Version | Text Only | Print | Product List | Glossary On
Versions: 1 2 3 4 5 6 7 8 9 10 11 12 13 14 15 16 17 18 19 20 21 22 23 24 25 26 27 28 29 30 31 32 33 34 35 36 37 38 39 40 41 42 43 44 45 46 47 48 49 50
000
ASUS43 KFGF 311010
RWRFGF
PRAIRIE TO PINES  WEATHER ROUNDUP
NATIONAL WEATHER SERVICE EASTERN NORTH DAKOTA/GRAND FORKS ND
500 AM CDT TUE MAY 31 2016

 **SATELLITE DATA USED TO AUGMENT SKY COVER AT AUTOMATED STATIONS**
 *****  WEATHER ACROSS EASTERN NORTH DAKOTA  *****

CITY           SKY/WX    TMP DP  RH WIND       PRES   REMARKS
GRAND FORKS    MOCLDY    60  57  89 SE13      29.67S
GRAND FRKS AFB CLOUDY    59  59 100 S12       29.67F
GRAND FRKS NWS   N/A     57 N/A N/A S12         N/A
DEVILS LAKE    LGT RAIN  58  57  97 SE8       29.66F FOG
FARGO          CLOUDY    61  58  90 S10       29.73R
WAHPETON ARPT  CLOUDY    59  55  88 S5        29.76F
$$

 ***** WEATHER ACROSS CENTRAL AND WESTERN NORTH DAKOTA  *****

CITY           SKY/WX    TMP DP  RH WIND       PRES   REMARKS
BISMARCK       PTCLDY    52  49  89 W13       29.78S
MINOT          CLOUDY    57  54  89 NW6       29.70F
JAMESTOWN      CLOUDY    58  56  93 W13       29.71S
MINOT AFB      LGT RAIN  55  55  98 N6        29.69F
GARRISON         N/A     52  50  93 W12       29.73F
WILLISTON      LGT RAIN  50  48  93 W14       29.76F
DICKINSON      MOCLDY    43  41  93 W12       29.81F
HETTINGER      CLEAR     45  40  82 W16       29.88S
$$

 *****  OTHER AIRPORT OBSERVATIONS IN OUR AREA  *****

CITY           SKY/WX    TMP DP  RH WIND       PRES   REMARKS
WALHALLA       LGT RAIN  55  52  88 E14G20    29.71F
GRAFTON AIRPOR CLOUDY    59  59 100 E12G18    29.69F
VALLEY CITY AR CLOUDY    57  57 100 S9        29.73S
CANDO          FAIR      57  57 100 SE12      29.68F FOG
CAVALIER APRT  CLOUDY    57  55  94 E13       29.69F
GWINNER        CLOUDY    59  57  94 S7        29.75F
SHEYENNE NWR     N/A     59  58  98 S6        29.95S
ROLLA          HVY RAIN  55  55 100 E13       29.69F
 ***** THE ABOVE OBSERVATIONS ARE NON NWS ARE NOT QUALITY
       CONTROLLED AND MAY MIS-REPORT RAIN FOR SNOW...
$$

  *****  WEATHER ACROSS NORTHERN MINNESOTA  *****

CITY           SKY/WX    TMP DP  RH WIND       PRES   REMARKS
FLAG ISLAND    LGT RAIN  55  48  76 E7        29.88S
WARROAD        RAIN      55  52  88 E17       29.85F
ROSEAU         LGT RAIN  54  48  82 E18G25    29.80F
HALLOCK        CLOUDY    57  55  94 E22G28    29.69F
THF RVR FALLS  CLOUDY    59  54  82 E17G25    29.74S
BAUDETTE       LGT RAIN  56  48  74 SE15      29.86F
WASKISH        DRIZZLE   57  48  72 E15G22    29.87R
CROOKSTON      MOCLDY    61  59  94 SE14      29.70S
STEPHEN NDAWN    N/A     61  57  88 SE20        N/A
GREENBUSH NDAW   N/A     55  54  94 E18         N/A
$$
  *****  WEATHER ACROSS CENTRAL AND WEST MINNESOTA  *****

CITY           SKY/WX    TMP DP  RH WIND       PRES   REMARKS
FOSSTON        CLOUDY    57  57 100 E7        29.74F
BEMIDJI        LGT RAIN  56  55  94 SE17G25   29.82S
PARK RAPIDS    LGT RAIN  61  58  90 E10       29.79F FOG
ELBOW LAKE     CLOUDY    60  58  93 S10       29.77S
WADENA         DRIZZLE   57  57 100 E6        29.78R
DETROIT LAKES  CLOUDY    59  57  94 S6        29.76R
MOORHEAD       CLOUDY    61  57  88 S8        29.75R
FERGUS FALLS   CLOUDY    61  61 100 SE7       29.74R
MORRIS MN      CLOUDY    63  61  94 S10       29.76S
STAPLES        LGT RAIN  61  59  94 CALM      29.80F
$$
  *****  WEATHER ELSEWHERE ACROSS MINNESOTA  *****

CITY           SKY/WX    TMP DP  RH WIND       PRES   REMARKS
DULUTH         CLOUDY    48  42  80 E22G30    29.98S
INTRNTL FALLS  CLOUDY    54  46  74 E12       29.91F
ELY            CLOUDY    48  39  71 SE13      30.01S
CLOQUET        LGT RAIN  46  43  87 E10G18    29.99R
WHEATON        CLOUDY    63  61  94 S6        29.78F
BRAINERD       RAIN      58  56  93 SE9G20    29.85R
HIBBING        LGT RAIN  47  42  83 SE13      29.96S
ALEXANDRIA     CLOUDY    61  58  90 SE12      29.77F
SAINT CLOUD    CLOUDY    63  60  90 S7        29.84S
MINNEAPOLIS    CLOUDY    67  57  70 SE10      29.87R
$$

  *****  WEATHER ACROSS SOUTH DAKOTA  *****

CITY           SKY/WX    TMP DP  RH WIND       PRES   REMARKS
SIOUX FALLS    LGT RAIN  62  59  90 W9        29.84R
BROOKINGS      CLOUDY    59  56  89 W12       29.83R
WATERTOWN      CLOUDY    58  54  86 W13       29.81R
HURON          PTCLDY    56  54  93 W9        29.87R
SISSETON         N/A     60  57  89 W8        29.77R
ABERDEEN       CLOUDY    56  54  93 SW6       29.80R
MITCHELL       PTCLDY    59  55  87 W12       29.89R
PIERRE         CLEAR     50  46  86 W14       29.91S
MOBRIDGE       CLEAR     51  45  79 W8        29.84R
RAPID CITY     CLOUDY    46  32  58 W3        30.00F
$$

  *****  SOME WEATHER IN NEARBY STATES *****

CITY           SKY/WX    TMP DP  RH WIND       PRES   REMARKS
GLASGOW MT     CLOUDY    50  48  93 NW14      29.85F
GREAT FALLS MT MOCLDY    42  37  82 W8        30.22S
CHEYENNE WY    CLOUDY    45  38  76 N10       30.15S
SCOTTSBLUFF NE CLOUDY    50  42  74 NW6       30.08F
OMAHA NE       MOCLDY    67  62  84 SE7       29.86S
DES MOINES IA  CLOUDY    66  58  75 S12       29.91S
DAVENPORT IA   MOCLDY    65  60  84 NE8       29.95S
CHICAGO IL     PTCLDY    68  53  58 E7        29.98S
EAU CLAIRE WI  CLOUDY    64  58  80 SE10      29.89S
LA CROSSE WI   MOCLDY    64  59  83 SE10      29.91S
$$

  *****  SOME NATIONAL WEATHER *****

CITY           SKY/WX    TMP DP  RH WIND       PRES   REMARKS
LA GUARDIA NY  CLOUDY    73  67  80 W5        29.92S
RALEIGH NC     CLOUDY    70  69  97 CALM      29.94R FOG
ATLANTA GA     PTCLDY    73  61  65 NE7       29.94R
NEW ORLEANS LA PTCLDY    73  70  90 CALM      29.93R
OKLAHOMA CITY  MOCLDY    67  66  97 SE7       29.88F
ALBUQUERQUE NM PTCLDY    66  35  31 SW8       30.00R
SALT LAKE CITY CLEAR     57  41  55 CALM      30.05S
LOS ANGELES CA CLOUDY    59  55  87 CALM      29.88S
BOISE ID       CLEAR     50  37  61 S6        30.09R
SEATTLE WA     PTCLDY    57  44  62 NE8       30.16S
$$

*** WEATHER ACROSS MANITOBA...SASKATCHEWAN AND ONTARIO ***
                ***ONTARIO***

CITY           SKY/WX    TMP DP  RH WIND       PRES   REMARKS
GERALDTON      PTCLDY    37  36  93 NE6       30.14R
THUNDER BAY    PTCLDY    41  39  93 NE7       30.13S
SIOUX LOOKOUT  MOCLDY    46  45  93 E5        30.07F
TORONTO        PTCLDY    63  48  59 NW7       29.98R
BIG TROUT LK   CLOUDY    30  28  93 NE8       30.24F WCI  23
PICKLE LAKE    NOT AVBL
DRYDEN         CLOUDY    50  43  76 E10G21    30.01F
KENORA         CLOUDY    54  45  71 E18G30    29.92F
$$
                *** MANITOBA***

CITY           SKY/WX    TMP DP  RH WIND       PRES   REMARKS
BRANDON        LGT RAIN  54  54 100 NE24G30   29.77F
DAUPHIN        MOCLDY    54  52  94 NE12      29.90F
ISLAND LAKE    CLEAR     39  36  87 E5        30.17R
PILOT MOUND      N/A     55  54  94 E16         N/A
THE PAS        MOCLDY    48  41  76 NE6       30.09R
THOMPSON       CLEAR     34  30  86 NE6       30.22R
WINNIPEG       LGT RAIN  54  50  87 E15       29.82F
LYNN LAKE      LGT RAIN  43  41  93 E6        30.18S
CHURCHILL      CLOUDY    27  23  86 SE7       30.40S WCI  19
GILLAM         CLOUDY    28  27  93 E3        30.33R FOG
$$
                ***SASKATCHEWAN***

CITY           SKY/WX    TMP DP  RH WIND       PRES   REMARKS
ESTEVAN        LGT RAIN  54  52  94 N17G24    29.74F
KINDERSLEY     CLOUDY    50  48  93 N13       30.08S
LLOYDMINSTER   CLOUDY    50  48  93 N8        30.12S
PRINCE ALBERT  CLOUDY    52  50  93 N9        30.04S
REGINA         NOT AVBL
YORKTON        CLOUDY    52  48  87 N12       29.91F
N. BATTLEFORD  CLOUDY    52  50  93 N7        30.08S
LA RONGE       CLOUDY    50  50 100 VRB2      30.11S
SASKATOON      CLOUDY    48  48 100 N8        30.04S
SWIFT CURRENT  CLOUDY    50  48  93 N13       29.99R
$$
NOTE: THESE ARE AUTOMATED STATIONS WITH LIMITED QUALITY CONTROL
      "FAIR" INDICATES FEW OR NO CLOUDS BELOW 12,000 FEET WITH NO
      SIGNIFICANT WEATHER AND/OR OBSTRUCTIONS TO VISIBILITY.
      SKY/WX - SKY CONDITION AND SIGNIFICANT WEATHER.
      TMP - AIR TEMPERATURE.    DP   - DEWPOINT TEMPERATURE.
      RH  - RELATIVE HUMIDITY.  PRES - PRESSURE.
      HX  - HEAT INDEX.         WCI  - WIND CHILL INDEX.
$




USA.gov is the U.S. government's official web portal to all federal, state and local government web resources and services.